Location: Gaast
(52.9002°N, 5.8891°E)
Time: 09:14:31
(UTC+00:00)

ISS - Pass Details

Date: 18 November 2025
Orbit: 416 x 420 km, 51.6° (Epoch: 11 December)

Event Time Altitude Azimuth Distance (km) Brightness Sun altitude
Rises 17:57:48 0° 250° (WSW) 2,366 1.4 -20.7°
Reaches altitude 10° 17:59:55 10° 246° (WSW) 1,502 0.1 -21.1°
Enters shadow 18:02:45 51° 205° (SSW) 537 -3.2 -21.5°
